Volver al catálogo

CZ-6A DEB

ActivoPO
NORAD 60900·DEBRIS·🇨🇳 China

Lanzado Aug 6, 2024 desde Taiyuan Satellite Launch Center

Loading…

Próximos Pases (próximas 24 horas)

TLE

ActualizadoSource: Space-Track

Época: Sep 14, 2026, 10:33 UTC

1 60900U 24140LF  26257.44004560  .00000196  00000-0  75572-4 0  9997
2 60900  88.9114 255.9774 0016465 185.1812 174.9214 14.26195440107872

Sigue CZ-6A DEB en tiempo real con AllMySat

Download on the App Store